Simultaneous Nadir Overpasses (SNOs) Predictions

Prediction of SNOs between AQUA and NOAA-19 Satellite Orbit:

Table of predicted SNOs for the next 14.0 days since TLE Epoch: 11/22/2019
Index Date (AQUA) Time (AQUA) Lat,Lon (AQUA) SZA (AQUA ) Date (NOAA-19) Time (NOAA-19) Lat,Lon (NOAA-19) SZA (NOAA-19 ) Distance(km) Time Diff (sec)
1 11/24/2019 17:05:42 -80.13, 71.85 78.21 11/24/2019 17:05:29 -80.13, 71.68 78.20 3.22 13
2 11/24/2019 17:55:13 80.27,-121.77 102.02 11/24/2019 17:56:18 80.32,-118.05 101.77 70.14 65
3 11/26/2019 22:39:26 80.13, 168.38 102.24 11/26/2019 22:38:49 80.13, 168.40 102.25 0.70 37
4 11/26/2019 23:28:53 -80.16, -24.20 77.72 11/26/2019 23:29:50 -80.15, -24.05 77.76 3.04 57
5 11/29/2019 04:13:09 -80.12, -94.98 77.36 11/29/2019 04:12:12 -80.13, -94.85 77.35 2.49 57
6 11/29/2019 05:02:36 80.13, 72.62 102.66 11/29/2019 05:03:11 80.13, 72.51 102.66 2.10 35
7 12/01/2019 10:36:19 -80.13, 169.22 76.98 12/01/2019 10:36:34 -80.12, 169.07 76.97 2.88 15
8 12/03/2019 16:10:03 80.13, -94.29 103.39 12/03/2019 16:09:56 80.11, -94.35 103.38 3.01 7
9 12/05/2019 21:43:45 -80.10, 2.55 76.35 12/05/2019 21:43:17 -80.12, 2.48 76.33 1.92 28




NCC Satellite Simultaneous Nadir Overpasses (SNOs) Prediction Service
